This demonstration page uses our WeatherBlox Daily Observations layout. Learn more.

Left ArrowRight Arrow

34.74481, -87.66753

Hourly Observations for August 2, 2015

Temp ( °F °C ) Dew Point ( °F °C ) Humidity (%) Winds ( mph kmh ) Pressure ( in mb ) Visibility ( mi km ) Precip ( " mm )
12:53 am 00:53 Clear 73 22.8 68 20 84 84 Calm 29.95 1014 10 16 0.00 0.00
1:53 am 01:53 Clear 71 21.7 67 19.4 87 87 Calm 29.95 1014 10 16 0.00 0.00
2:53 am 02:53 Clear 70 21.1 66 18.9 87 87 Calm 29.95 1014 10 16 0.00 0.00
3:53 am 03:53 Clear 71 21.7 65 18.3 81 81 Calm 29.94 1014 10 16 0.00 0.00
4:53 am 04:53 Clear 69 20.6 66 18.9 90 90 NW 3 6 29.95 1014 10 16 0.00 0.00
5:53 am 05:53 Clear 68 20 64 17.8 87 87 Calm 29.95 1014 10 16 0.00 0.00
6:53 am 06:53 Sunny 71 21.7 67 19.4 87 87 Calm 29.96 1015 10 16 0.00 0.00
7:53 am 07:53 Sunny 77 25 66 18.9 69 69 Calm 29.97 1015 10 16 0.00 0.00
8:53 am 08:53 Sunny 81 27.2 66 18.9 61 61 Calm 29.98 1015 10 16 0.00 0.00
9:53 am 09:53 Sunny 85 29.4 67 19.4 55 55 NW 3 6 29.98 1015 10 16 0.00 0.00
10:53 am 10:53 Sunny 87 30.6 63 17.2 45 45 Calm 29.97 1015 10 16 0.00 0.00
11:53 am 11:53 Sunny 90 32.2 53 11.7 28 28 N 5 7 29.97 1015 10 16 0.00 0.00
12:53 pm 12:53 Sunny 92 33.3 56 13.3 30 30 VRB 3 6 29.96 1014 10 16 0.00 0.00
1:53 pm 13:53 Sunny 93 33.9 58 14.4 31 31 NW 6 9 29.94 1014 10 16 0.00 0.00
2:53 pm 14:53 Sunny 93 33.9 58 14.4 31 31 NNW 7 11 29.92 1013 10 16 0.00 0.00
3:53 pm 15:53 Sunny 94 34.4 54 12.2 26 26 N 5 7 29.91 1013 10 16 0.00 0.00
4:53 pm 16:53 Sunny 93 33.9 55 12.8 28 28 VRB 3 6 29.90 1013 10 16 0.00 0.00
5:53 pm 17:53 Sunny 91 32.8 57 13.9 32 32 ENE 5 7 29.89 1012 10 16 0.00 0.00
6:53 pm 18:53 Sunny 86 30 58 14.4 39 39 Calm 29.89 1012 10 16 0.00 0.00
7:53 pm 19:53 Clear 82 27.8 58 14.4 44 44 Calm 29.89 1012 10 16 0.00 0.00
8:53 pm 20:53 Clear 73 22.8 64 17.8 74 74 N 3 6 29.89 1012 10 16 0.00 0.00
9:53 pm 21:53 Clear 70 21.1 63 17.2 79 79 SE 3 6 29.90 1013 10 16 0.00 0.00
10:53 pm 22:53 Clear 69 20.6 63 17.2 81 81 Calm 29.91 1013 10 16 0.00 0.00
11:53 pm 23:53 Clear 68 20 63 17.2 84 84 Calm 29.92 1013 10 16 0.00 0.00

Powered by AerisWeather